#timestamp,LO_Frequency,Hit,StdDev 
1515502815.7,286047000.0,N
1515502835.6,286047000.0,N
1515502855.4,286047002.2,N
1515502875.2,286047000.5,N
1515502895.1,286047000.6,N
1515502896.0,286047000.6,N
1515502915.8,286047001.1,N
1515502935.6,286047000.5,N
1515502955.5,286046998.3,N
1515502975.3,286046998.2,N
1515502995.2,286046999.9,N
1515503015.9,286046999.8,N
1515503035.7,286047000.0,N
1515503055.6,286047000.6,N
1515503075.4,286046999.7,N
1515503095.3,286047000.0,N
1515503115.1,286047002.5,N
1515503116.0,286047002.5,N
1515503135.8,286047000.2,N
1515503155.7,286047000.1,N
1515503175.5,286047002.1,N
1515503195.4,286047002.1,N
1515503215.2,286047002.7,N
1515503235.0,286047000.2,N
1515503235.9,286047000.2,N
1515503255.8,286046999.9,N
1515503275.6,286047002.3,N
1515503295.5,286046999.9,N
1515503315.3,286047002.2,N
1515503335.1,286047000.1,N
1515503355.9,286047000.5,N
1515503375.7,286046999.8,N
1515503395.5,286046999.7,N
1515503415.4,286046999.8,N
1515503435.2,286046999.9,N
1515503455.1,286047000.4,N
1515503456.0,286047000.4,N
1515503475.8,286046998.3,N
1515503495.6,286047000.3,N
1515503515.5,286047002.8,N
1515503535.3,286047002.8,N
1515503555.2,286047001.5,N
1515503575.9,286047002.5,N
1515503595.7,286047002.0,N
1515503615.6,286047002.1,N
1515503635.4,286047002.7,N
1515503655.2,286047001.8,N
1515503675.1,286047003.7,N
1515503676.0,286047003.7,N
1515503695.8,286047004.4,Y
1515503715.7,286047002.5,P
1515503735.5,286047002.3,P
1515503755.3,286047000.5,N
1515503775.2,286046999.8,N
1515503795.0,286047000.1,N
1515503795.9,286047000.1,N
1515503815.7,286047000.2,N
1515503835.6,286047000.4,N
1515503855.4,286046999.8,N
1515503875.3,286047000.9,N
1515503895.1,286046999.7,N
1515503896.0,286046999.7,N
1515503915.8,286047000.0,N
1515503935.7,286047001.1,N
1515503955.5,286047000.0,N
1515503975.3,286046998.2,N
1515503995.2,286047001.2,N
1515504015.0,286047000.2,N
1515504015.9,286047000.2,N
1515504035.8,286046999.7,N
1515504055.6,286047001.5,N
1515504075.4,286046999.7,N
1515504095.3,286047002.8,Y
1515504115.1,286047000.2,P
1515504135.9,286047002.7,P
1515504155.7,286047003.9,P
1515504175.5,286047002.1,N
1515504195.4,286047004.4,Y
1515504215.2,286047002.0,P
1515504235.1,286047001.7,P
1515504236.0,286047001.7,P
1515504255.8,286047002.6,Y
1515504275.6,286046998.8,P
1515504295.5,286046996.8,N
1515504315.3,286046997.3,N
1515504335.2,286046995.6,N
1515504355.9,286046995.8,N
1515504375.7,286046996.1,N
1515504395.6,286046997.2,N
1515504415.4,286046994.9,N
1515504435.2,286046995.3,N
1515504455.1,286046995.3,N
1515504456.0,286046995.3,N
1515504475.8,286046996.1,N
1515504495.7,286046996.1,N
1515504515.5,286046995.9,N
1515504535.3,286046993.7,Y
1515504555.2,286046997.0,P
1515504575.0,286046998.6,P
1515504575.9,286046998.6,N
1515504595.8,286046998.4,N
1515504615.6,286046998.8,N
1515504635.4,286046998.4,N
1515504655.3,286046998.1,N
1515504675.1,286046999.7,N
1515504695.8,286047002.7,N
1515504715.7,286047000.4,N
1515504735.5,286047000.0,N
1515504755.4,286047001.1,N
1515504775.2,286046998.2,N
1515504795.0,286047000.7,N
1515504795.9,286047000.7,N
1515504815.8,286047000.8,N
1515504835.6,286047000.4,N
1515504855.4,286047001.0,N
1515504875.3,286047000.7,N
1515504895.1,286047001.1,N
1515504915.9,286046998.8,N
1515504935.7,286046998.9,N
1515504955.5,286046998.1,N
1515504975.4,286046998.6,N
1515504995.2,286047000.9,N
1515505015.0,286047000.2,N
1515505016.0,286047000.2,N
1515505035.8,286046999.8,N
1515505055.6,286047000.7,N
1515505075.5,286046998.2,N
1515505095.3,286047000.1,N
1515505115.1,286046998.8,N
1515505135.9,286046998.3,N
1515505155.7,286047001.1,N
1515505175.6,286047000.7,N
1515505195.4,286046998.8,N
1515505215.2,286046998.1,N
1515505235.1,286047001.2,N
1515505236.0,286047001.2,N
1515505255.8,286046998.3,N
1515505275.6,286047001.1,N
1515505295.4,286046999.4,N
1515505315.3,286046998.4,N
1515505335.1,286046998.3,N
1515505355.9,286046999.8,N
1515505375.7,286046999.7,N
1515505395.5,286046999.8,N
1515505415.4,286047002.8,N
1515505435.2,286047002.0,N
1515505455.0,286047002.5,N
1515505455.9,286047002.5,N
1515505475.8,286046999.8,N
1515505495.6,286047000.2,N
1515505515.5,286047002.5,N
1515505535.3,286046999.7,N
1515505555.1,286047000.5,N
1515505575.9,286047002.6,N
1515505595.7,286047000.4,N
1515505615.6,286047000.8,N
1515505635.4,286047002.6,N
1515505655.2,286047002.6,N
1515505675.1,286047000.2,N
1515505676.0,286047000.2,N
1515505695.8,286047002.5,N
1515505715.7,286047000.0,N
1515505735.5,286046999.9,N
1515505755.4,286047000.6,N
1515505775.2,286046999.9,N
1515505795.1,286047002.2,N
1515505796.0,286047002.2,N
1515505815.8,286047001.7,N
1515505835.6,286047004.3,Y
1515505855.5,286047002.6,P
1515505875.3,286047002.6,N
1515505895.2,286047000.5,N
1515505915.9,286047001.1,N
1515505935.7,286047000.9,N
1515505955.6,286046998.3,N
1515505975.4,286046998.7,N
1515505995.3,286046999.1,N
1515506015.1,286046996.6,N
1515506035.8,286046999.3,N
1515506055.7,286046999.2,N
1515506075.5,286046999.3,N
1515506095.4,286046999.5,N
1515506115.2,286046996.5,N
1515506135.0,286046998.4,N
1515506135.9,286046998.4,N
1515506155.8,286046999.0,N
1515506175.6,286046999.0,N
1515506195.5,286046998.1,N
1515506215.3,286047001.2,N
1515506235.1,286047002.3,N
1515506255.9,286046999.7,N
1515506275.7,286047000.1,N
1515506295.5,286047000.3,N
1515506315.4,286047002.8,N
1515506335.2,286047000.0,N
1515506355.1,286046998.7,N
1515506356.0,286046998.7,N
1515506375.8,286046998.7,N
1515506395.6,286046998.2,N
